Location: Newark
(42.8481°N, 0.4872°E)
Time: 20:54:35
(UTC+00:00)

Transit 2A - Pass Details

Date: 01 November 2020
Orbit: 595 x 963 km, 66.7° (Epoch: 03 December)

Event Time Altitude Azimuth Distance (km) Brightness Sun altitude
Rises 09:46:08 0° 321° (NW) 3,384 8.8 26.7°
Reaches altitude 10° 09:48:55 10° 312° (NW) 2,382 8.1 27.0°
Maximum altitude 09:53:39 31° 251° (WSW) 1,278 7.3 27.4°
Drops below altitude 10° 09:57:58 10° 189° (S) 2,153 9.3 27.8°
Sets 10:00:22 0° 179° (S) 3,009 10.0 28.0°
